World > North America > United States > North Carolina

Oak Park, North Carolina Regional Weather

Lat: 35.45N, Lon: 82.51W
Wx Zone: NCZ053Web Search

If you are on your PC, you can easily pass this page to your phone by scanning the QR Code near the bottom with your camera.

Feedback


°F Click to change Oak Park hourly weather to Imperial units.Click to change Oak Park hourly weather to Metric units. °C
Oak Park Weather Map
UTC Time: 5/9/2021, 16:13
Your Time:

Oak Park, NC Regional Weather

Expires:202105091700;;846581
ASUS42 KRAH 091610
RWRRAH
NORTH CAROLINA WEATHER ROUNDUP
NATIONAL WEATHER SERVICE RALEIGH NC
1200 PM EDT SUN MAY 09 2021

NOTE: "FAIR" INDICATES FEW OR NO CLOUDS BELOW 12,000 FEET WITH NO
SIGNIFICANT WEATHER AND/OR OBSTRUCTIONS TO VISIBILITY.


NCZ001-053-055-056-065-067-091700-
WESTERN NORTH CAROLINA
  
CITY           SKY/WX    TMP DP  RH WIND       PRES   REMARKS
ASHEVILLE      MOSUNNY   71  43  36 S22G29    30.07F                  
JEFFERSON      PTSUNNY   61  40  46 S12G17    30.05F                  
MORGANTON      PTSUNNY   68  42  38 SW3       30.10F                  
HICKORY        PTSUNNY   65  43  44 VRB5      30.07F                  
WILKESBORO     NOT AVBL                                               
RUTHERFORDTON  MOSUNNY   68  48  49 S9        30.09S                  
MOUNT AIRY     NOT AVBL                                               
BOONE            N/A     62  38  40 S10G23    30.07F                  
$$
 

SKY/WX - Weather  TMP - Temperature  DP - Dew Point  RH - Relative Humidity
WIND - Wind Direction/Speed PRES - Barometric Pressure VSB - Visibility
WCI - Wind Chill Index E13G22 Wind - East Wind 13 mph/Gusts of 22 mph